Weather History for Martinsburg, WV

Change the Weather History Date:

Wednesday, March 20, 2013

  Actual Average Record
Temperature  
Mean Temperature 42 °F 43 °F  
Max Temperature 51 °F 54 °F 82 °F (1945)
Min Temperature 33 °F 33 °F 19 °F (1944)
Degree Days  
Heating Degree Days 23 22  
Month to date heating degree days 490 499  
Since 1 July heating degree days 4125 4455  
Cooling Degree Days 0 0  
Month to date cooling degree days 0 0  
Year to date cooling degree days 0 0  
Moisture  
Dew Point 14 °F    
Average Humidity 45    
Maximum Humidity 70    
Minimum Humidity 19    
Precipitation  
Precipitation 0.00 in 0.12 in 1.64 in (1998)
Month to date precipitation 1.29 2.17  
Year to date precipitation 6.11 6.95  
Sea Level Pressure  
Sea Level Pressure 29.90 in    
Wind  
Wind Speed 15 mph (West)    
Max Wind Speed 29 mph    
Max Gust Speed 37 mph    
Visibility 10 miles    
Events      
T = Trace of Precipitation, MM = Missing Value Source: NWS Daily Summary

Daily Weather History Graph

Daily Weather History Graph

Search for Another Location

Airport:

Trip Planner

Search our weather history database for the weather conditions in past years. The results will help you decide how hot, cold, wet, or windy it might be!

Date:

Astronomy

Mar. 20, 2013 Rise Set
Actual Time 7:15 AM EDT 7:24 PM EDT
Civil Twilight 6:48 AM EDT 7:50 PM EDT
Nautical Twilight 6:16 AM EDT 8:22 PM EDT
Astronomical Twilight 5:45 AM EDT 8:54 PM EDT
Moon 12:59 PM EDT (3/20) 2:51 AM EDT (3/20)
Length of Visible Light 13h 02m
Length of Day
12h 09m
First Quarter, 59% of the Moon is Illuminated
Mar 20
First Quarter
Mar 27
Full
Apr 3
Last Quarter
Apr 10
New
Apr 18
First Quarter

Hourly Weather History & Observations

Time (EDT) Temp. Windchill Dew Point Humidity Pressure Visibility Wind Dir Wind Speed Gust Speed Precip Events Conditions
12:53 AM 39.0 °F 28.8 °F 14.0 °F 36% 29.95 in 10.0 mi West 21.9 mph 31.1 mph N/A   Clear
1:53 AM 37.9 °F 27.9 °F 10.9 °F 33% 29.96 in 10.0 mi West 19.6 mph 26.5 mph N/A   Clear
2:53 AM 37.0 °F 25.9 °F 10.9 °F 34% 29.96 in 10.0 mi West 23.0 mph 29.9 mph N/A   Clear
3:53 AM 36.0 °F 26.3 °F 12.0 °F 37% 29.96 in 10.0 mi West 16.1 mph - N/A   Clear
4:53 AM 36.0 °F 27.1 °F 10.9 °F 36% 29.97 in 10.0 mi West 13.8 mph 26.5 mph N/A   Clear
5:53 AM 34.0 °F 25.0 °F 10.9 °F 38% 29.97 in 10.0 mi West 12.7 mph 21.9 mph N/A   Clear
6:53 AM 34.0 °F 24.6 °F 10.9 °F 38% 29.97 in 10.0 mi West 13.8 mph 24.2 mph N/A   Clear
7:53 AM 34.0 °F 26.0 °F 12.0 °F 40% 29.98 in 10.0 mi West 10.4 mph - N/A   Clear
8:53 AM 37.0 °F 28.5 °F 10.9 °F 34% 29.98 in 10.0 mi West 13.8 mph 21.9 mph N/A   Clear
9:53 AM 39.9 °F 31.4 °F 10.9 °F 31% 29.99 in 10.0 mi West 16.1 mph 26.5 mph N/A   Clear
10:53 AM 43.0 °F 35.1 °F 12.0 °F 28% 29.97 in 10.0 mi West 17.3 mph 26.5 mph N/A   Clear
11:53 AM 44.1 °F 36.8 °F 12.0 °F 27% 29.95 in 10.0 mi West 16.1 mph 29.9 mph N/A   Clear
12:53 PM 46.0 °F 40.2 °F 12.0 °F 25% 29.92 in 10.0 mi West 12.7 mph 24.2 mph N/A   Scattered Clouds
1:53 PM 48.0 °F - 12.0 °F 24% 29.88 in 10.0 mi West 12.7 mph 23.0 mph N/A   Partly Cloudy
2:53 PM 51.1 °F - 10.9 °F 20% 29.83 in 10.0 mi West 25.3 mph 32.2 mph N/A   Overcast
3:53 PM 51.1 °F - 10.9 °F 20% 29.80 in 10.0 mi WSW 21.9 mph 27.6 mph N/A   Overcast
4:53 PM 48.9 °F - 10.0 °F 21% 29.78 in 10.0 mi West 12.7 mph 31.1 mph N/A   Overcast
5:53 PM 48.0 °F - 12.0 °F 24% 29.77 in 10.0 mi West 15.0 mph - N/A   Mostly Cloudy
6:53 PM 46.0 °F 38.8 °F 14.0 °F 28% 29.78 in 10.0 mi West 18.4 mph 26.5 mph N/A   Mostly Cloudy
7:53 PM 44.1 °F 37.7 °F 16.0 °F 32% 29.79 in 10.0 mi West 12.7 mph 20.7 mph N/A   Mostly Cloudy
8:53 PM 41.0 °F 33.1 °F 21.9 °F 47% 29.83 in 10.0 mi NNW 15.0 mph - N/A   Overcast
9:53 PM 37.0 °F 29.8 °F 25.0 °F 62% 29.84 in 10.0 mi NW 10.4 mph 19.6 mph N/A   Scattered Clouds
10:53 PM 36.0 °F 31.1 °F 27.0 °F 70% 29.84 in 10.0 mi NNW 5.8 mph - N/A   Overcast
11:53 PM 36.0 °F 29.0 °F 25.0 °F 64% 29.85 in 10.0 mi NNW 9.2 mph - N/A   Overcast